Location: Lombard
(41.8800°N, 88.0080°W)
Time: 18:38:17
(UTC-06:00)

Vanguard 3 - Pass Details

Date: 11 December 2023
Orbit: 508 x 3239 km, 33.4° (Epoch: 23 February)

Event Time Altitude Azimuth Distance (km) Brightness Sun altitude
Rises 17:56:27 0° 218° (SW) 7,185 12.9 -17.1°
Reaches altitude 10° 18:01:58 10° 211° (SSW) 6,145 12.3 -18.1°
Maximum altitude 18:18:14 37° 154° (SSE) 3,751 10.3 -21.0°
Enters shadow 18:25:59 23° 109° (ESE) 3,940 10.1 -22.5°
